Mullan Pass, ID

4:09 AM PDT on September 25, 2017 (GMT -0700)
Mullan Pass

Weather History for KMLP - July, 2013

Change the Weather History Date:

Sunday, July 28, 2013

  Actual Average (K3TH) Record (K3TH)
Temperature  
Mean Temperature 62 °F -  
Max Temperature 70 °F 86 °F 100 °F (1996)
Min Temperature 55 °F 57 °F 57 °F (1996)
Degree Days  
Heating Degree Days 4    
Growing Degree Days 12 (Base 50)    
Moisture  
Dew Point 32 °F    
Average Humidity 35    
Maximum Humidity 45    
Minimum Humidity 28    
Precipitation  
Precipitation 0.00 in - - ()
Sea Level Pressure  
Sea Level Pressure 29.75 in    
Wind  
Wind Speed 5 mph (NW)    
Max Wind Speed 7 mph    
Max Gust Speed -    
Visibility 10 miles    
Events      
Averages and records for this station are not official NWS values.
T = Trace of Precipitation, MM = Missing Value Source: NWS Daily Summary

Daily Weather History Graph

Daily Weather History Graph

Search for Another Location

Airport or City:

Trip Planner

Search our weather history database for the weather conditions in past years. The results will help you decide how hot, cold, wet, or windy it might be!

Date:

Astronomy

Jul. 28, 2013 Rise Set
Actual Time 5:16 AM PDT 8:21 PM PDT
Civil Twilight 4:39 AM PDT 8:57 PM PDT
Nautical Twilight 3:52 AM PDT 9:44 PM PDT
Astronomical Twilight 2:53 AM PDT 10:42 PM PDT
Moon 11:10 PM PDT (7/28) 12:36 PM PDT (7/28)
Length of Visible Light 16h 18m
Length of Day
15h 05m
Waning Gibbous, 60% of the Moon is Illuminated
Jul 28
Waning Gibbous
Jul 29
Last Quarter
Aug 6
New
Aug 14
First Quarter
Aug 20
Full

Hourly Weather History & Observations

Time (PDT) Temp. Dew Point Humidity Pressure Visibility Wind Dir Wind Speed Gust Speed Precip Events Conditions
12:53 AM 59.0 °F 26.1 °F 28% 29.76 in 10.0 mi WSW 5.8 mph - N/A   Clear
1:53 AM 57.0 °F 27.0 °F 32% 29.76 in 10.0 mi Variable 4.6 mph - N/A   Clear
2:53 AM 55.9 °F 26.1 °F 32% 29.75 in 10.0 mi WNW 3.5 mph - N/A   Clear
3:53 AM 55.9 °F 24.1 °F 29% 29.75 in 10.0 mi NW 3.5 mph - N/A   Clear
4:53 AM 55.0 °F 25.0 °F 31% 29.75 in 10.0 mi NW 4.6 mph - N/A   Clear
5:53 AM 55.0 °F 26.1 °F 33% 29.76 in 10.0 mi WNW 4.6 mph - N/A   Clear
6:53 AM 57.0 °F 27.0 °F 32% 29.76 in 10.0 mi NW 4.6 mph - N/A   Clear
7:53 AM 57.9 °F 28.9 °F 33% 29.76 in 10.0 mi NNW 3.5 mph - N/A   Clear
8:53 AM 61.0 °F 34.0 °F 36% 29.76 in 10.0 mi Calm Calm - N/A   Clear
9:53 AM 61.0 °F 35.1 °F 38% 29.76 in 10.0 mi NW 3.5 mph - N/A   Clear
10:53 AM 62.1 °F 36.0 °F 38% 29.76 in 10.0 mi NNW 5.8 mph - N/A   Clear
11:53 AM 64.9 °F 36.0 °F 34% 29.76 in 10.0 mi NNW 4.6 mph - N/A   Clear
12:53 PM 66.9 °F 34.0 °F 30% 29.75 in 10.0 mi NNW 6.9 mph - N/A   Clear
1:53 PM 68.0 °F 35.1 °F 30% 29.74 in 10.0 mi Variable 6.9 mph - N/A   Clear
2:53 PM 68.0 °F 36.0 °F 31% 29.75 in 10.0 mi NNW 6.9 mph - N/A   Clear
3:53 PM 68.0 °F 34.0 °F 28% 29.74 in 10.0 mi Variable 4.6 mph - N/A   Clear
4:53 PM 68.0 °F 37.0 °F 32% 29.74 in 10.0 mi Variable 4.6 mph - N/A   Clear
5:53 PM 66.9 °F 37.0 °F 33% 29.74 in 10.0 mi Variable 3.5 mph - N/A   Clear
6:53 PM 64.0 °F 36.0 °F 35% 29.74 in 10.0 mi Variable 4.6 mph - N/A   Clear
7:53 PM 59.0 °F 35.1 °F 41% 29.76 in 10.0 mi NNW 5.8 mph - N/A   Clear
8:53 PM 57.0 °F 35.1 °F 44% 29.76 in 10.0 mi NNW 5.8 mph - N/A   Clear
9:53 PM 57.0 °F 35.1 °F 44% 29.77 in 10.0 mi NNW 5.8 mph - N/A   Clear
10:53 PM 57.0 °F 35.1 °F 44% 29.76 in 10.0 mi NW 5.8 mph - N/A   Clear
11:53 PM 57.0 °F 36.0 °F 45% 29.75 in 10.0 mi North 4.6 mph - N/A   Clear